TIME,DELAY(SENSOR),PRES,T(CTD),SAL,OXYGEN,RAWTEMP,T(OPTODE),TCPHASE,FLUOR,BETA(BETA700),BETA(BETA412),BETA(BETA440),CDOM,C(CSC),ED(ED411.90),ED(ED443.80),ED(ED489.40),ED(ED554.70),LU(LU412.20),LU(LU443.80),LU(LU489.40),LU(LU555.00),COMP,TILTX,TILTX(TILTY),CHECK
1356796971,5803,497.3500061035156000,17.2133007049560550,36.4057998657226560,223.3412933349609400,181.2467041015625000,17.2137298583984380,31.6674709320068360,50,97,94,80,68,12540,2146959396,2147510235,2147268187,2147460790,2147089225,2146951890,2147655414,2147127698,3473,-2,8,4781
1356797094,5802,486.5199890136719000,17.3187999725341800,36.4268989562988300,225.5753936767578000,178.0155944824218800,17.3111896514892580,31.5084209442138670,50,97,95,80,67,12540,2146961078,2147517449,2147270774,2147462957,2147088832,2146957266,2147656822,2147121042,2201,-1,8,55607
1356797215,5805,475.7799987792969000,17.3883991241455080,36.4413986206054700,226.4087982177734400,175.5921020507812500,17.3842906951904300,31.4333496093750000,50,97,97,79,68,12543,2146959478,2147517686,2147268571,2147460278,2147088393,2146956196,2147657042,2147123355,1159,-1,9,36020
1356797350,5805,463.8599853515625000,17.4925994873046880,36.4606018066406250,228.2223052978515600,172.0417938232422000,17.4913997650146500,31.2935905456542970,50,98,95,80,68,12544,2146960164,2147514304,2147269330,2147456438,2147084434,2146955657,2147655506,2147129069,96,-1,8,25652
1356797471,5805,453.1199951171875000,17.5734004974365230,36.4737014770507800,228.3892059326172000,169.4275970458984400,17.5702800750732420,31.2495708465576170,50,97,95,79,69,12540,2146958619,2147516205,2147268964,2147457078,2147083876,2146959780,2147654080,2147122505,2788,-2,8,14064
1356797592,5808,442.3599853515625000,17.6994991302490230,36.4980010986328100,229.9210968017578000,165.2917938232422000,17.6950893402099600,31.1172599792480470,50,97,95,79,68,12541,2146960036,2147516662,2147268873,2147457362,2147081773,2146955702,2147654866,2147124882,2717,-2,9,10385
1356797715,5806,431.4800109863281000,17.7590999603271500,36.5096015930175800,231.6228942871093800,163.3506927490234400,17.7536792755126950,31.0069007873535160,50,98,95,79,67,12541,2146958034,2147512740,2147265746,2147460022,2147073060,2146958646,2147653641,2147126445,1967,-2,8,48398
1356797836,5806,420.7699890136719000,17.8374996185302730,36.5246009826660160,232.6752929687500000,160.7559051513672000,17.8320102691650400,30.9204101562500000,50,98,95,80,68,12543,2146959232,2147517037,2147268608,2147455350,2147085787,2146957732,2147651236,2147125376,1051,-2,9,26971
1356797949,5805,410.6499938964844000,17.8960990905761720,36.5345001220703100,233.4055023193359400,158.7962951660156200,17.8911800384521500,30.8584594726562500,50,98,95,81,68,12540,2146962258,2147514898,2147265590,2147454564,2147083739,2146961307,2147650221,2147130002,395,-1,8,58847
1356798081,5804,398.7999877929687500,17.9733009338378900,36.5471992492675800,233.3887023925781200,156.2066040039062500,17.9693794250488280,30.8247795104980470,50,99,96,80,67,12539,2146958482,2147515602,2147266258,2147456182,2147086125,2146956388,2147649353,2147128155,2805,-1,9,63877
1356798202,5803,388.0000000000000000,18.0240993499755860,36.5522003173828100,232.8809967041015600,154.5485992431640600,18.0194492340087900,30.8270797729492200,50,98,97,81,67,12538,2146959954,2147513133,2147267254,2147456630,2147084251,2146960868,2147652324,2147128832,1908,-1,9,26442
1356798325,5803,377.1600036621094000,18.0662002563476560,36.5592994689941400,232.5554046630859400,153.0957946777343800,18.0633201599121100,30.8237094879150400,50,98,97,80,67,12537,2146960630,2147517120,2147268672,2147458560,2147079616,2146963904,2147653595,2147129664,1091,-2,9,53828
1356798446,5806,366.7399902343750000,18.1128997802734380,36.5649986267089840,232.3047943115234400,151.3009033203125000,18.1175403594970700,30.8118991851806640,50,100,97,82,67,12539,2146959268,2147513865,2147265417,2147455689,2147079232,2146963894,2147651492,2147126080,819,-1,8,44322
1356798581,5804,355.4599914550781000,18.1725006103515620,36.5718994140625000,231.5249938964843800,149.6280059814453000,18.1680793762207030,30.8275508880615230,50,97,96,80,66,12537,2146958701,2147513801,2147267044,2147456256,2147078189,2146960155,2147649755,2147123840,3180,-2,9,42406
1356798713,5808,344.5199890136719000,18.2441997528076170,36.5783996582031250,231.0928039550781200,147.2528076171875000,18.2398395538330080,30.8169097900390620,50,98,95,82,67,12539,2146958272,2147512749,2147265581,2147458285,2147085339,2146960987,2147651858,2147131510,2298,-2,8,34780
1356798845,5803,333.8399963378906000,18.3204994201660160,36.5853996276855500,230.0323944091797000,144.7655944824218800,18.3150005340576170,30.8358592987060550,50,99,97,81,67,12540,2146959396,2147512237,2147266752,2147453403,2147085403,2146961161,2147646957,2147124672,2008,-1,9,15583
1356798990,5806,322.4200134277344000,18.3967990875244140,36.5914993286132800,227.8103942871093800,142.1992950439453000,18.3925590515136720,30.9114494323730470,50,98,94,82,67,12542,2146958793,2147513069,2147266633,2147455158,2147075529,2146961270,2147651364,2147128685,1275,-2,9,53698
1356799133,5805,311.5299987792969000,18.4876003265380860,36.5980987548828100,226.4118041992187500,139.1255035400390600,18.4854793548584000,30.9404296875000000,50,101,96,80,68,12540,2146961417,2147512612,2147266422,2147452169,2147077769,2146961261,2147653248,2147125769,1002,-1,9,35941
1356799267,5805,300.2200012207031000,18.5687999725341800,36.6016006469726560,224.7601928710937500,136.6528930664062500,18.5602493286132800,30.9903907775878900,50,97,96,81,68,12539,2146961051,2147516443,2147262070,2147455798,2147080036,2146960054,2147654692,2147124928,487,-1,8,50490
1356799377,5806,289.4200134277344000,18.6294994354248050,36.5987014770507800,226.3439941406250000,134.4897003173828000,18.6256599426269530,30.8816699981689450,50,98,96,80,68,12541,2146961435,2147515510,2147267794,2147450587,2147079122,2146967606,2147649243,2147124617,629,-1,8,41164
1356799498,5806,277.6099853515625000,18.8029003143310550,36.6066017150878900,224.7167053222656200,128.6139068603515600,18.8034191131591800,30.8850593566894530,50,97,95,79,68,12541,2146958820,2147517641,2147266816,2147449837,2147075318,2146963501,2147651940,2147129755,1236,-1,9,56011
1356799610,5806,266.8399963378906000,18.9237995147705080,36.6118011474609400,223.6367950439453000,124.8219985961914000,18.9181709289550780,30.8892498016357420,50,97,96,81,69,12540,2146958372,2147515913,2147266697,2147450624,2147085174,2146965421,2147653339,2147126646,1136,-2,8,52624
1356799720,5805,256.4800109863281000,19.0083999633789060,36.6102981567382800,223.7135925292968800,121.8739013671875000,19.0074195861816400,30.8462791442871100,50,97,96,81,68,12541,2146959222,2147517641,2147264539,2147452790,2147083154,2146961910,2147656640,2147128557,3373,-2,8,22829
1356799841,5806,245.0099945068359400,19.1462993621826170,36.6036987304687500,228.5765991210937500,117.5145034790039000,19.1394290924072270,30.5453491210937500,50,98,95,80,68,12542,2146959277,2147516690,2147266532,2147449152,2147071387,2146966838,2147657243,2147128832,3131,-1,9,24052
1356799953,5805,234.1999969482422000,19.1800994873046880,36.5901985168457000,234.3314056396484400,116.1989974975586000,19.1792793273925780,30.2481498718261720,51,97,96,79,67,12541,2146961161,2147515666,2147263451,2147447497,2147088192,2146969947,2147662262,2147129417,3481,-2,9,41852
1356800063,5807,223.3200073242187500,19.2667007446289060,36.5886001586914060,236.9528961181640600,113.4013977050781200,19.2640304565429700,30.0869197845459000,50,96,96,79,67,12542,2146959579,2147515090,2147264402,2147449947,2147087616,2146974134,2147665398,2147127981,2935,-2,9,45013
1356800173,5802,212.3300018310547000,19.3059997558593750,36.5862007141113300,239.1049957275390600,112.1937026977539000,19.3006305694580080,29.9700508117675780,50,98,95,79,66,12542,2146957357,2147514313,2147261202,2147449965,2147082989,2146974582,2147673892,2147129664,2008,-2,9,52268
1356800285,5809,201.3600006103515600,19.3525009155273440,36.5831985473632800,240.6383972167968800,110.5641021728515600,19.3500194549560550,29.8774890899658200,50,96,96,80,66,12540,2146956397,2147515108,2147263936,2147444361,2147088749,2146982774,2147687908,2147131904,1796,-2,9,46090
1356800340,5805,196.0700073242187500,19.3714008331298830,36.5826988220214840,241.0202026367187500,109.7991027832031200,19.3732109069824220,29.8502292633056640,50,99,95,80,65,12535,2146959798,2147515803,2147262838,2147445376,2147089270,2146989613,2147695341,2147129526,1481,-1,9,601
1356800395,5805,190.9299926757812500,19.4148998260498050,36.5815010070800800,240.9400939941406200,108.5843963623046900,19.4100303649902340,29.8378791809082030,50,99,97,80,66,12535,2146958802,2147514185,2147264521,2147448877,2147091035,2146994121,2147708717,2147133147,1545,-1,9,52000
1356800450,5803,185.9400024414062500,19.4321994781494140,36.5834007263183600,241.4696960449218800,107.9932022094726600,19.4279499053955080,29.8058204650878900,52,100,96,81,65,12535,2146959542,2147512557,2147268114,2147447625,2147090678,2146999067,2147717513,2147134125,1207,-1,8,17548
1356800505,5804,181.1300048828125000,19.4624004364013670,36.5844993591308600,241.5782928466797000,106.7808990478515600,19.4647102355957030,29.7849197387695300,51,99,95,80,65,12532,2146959753,2147514596,2147266294,2147448841,2147092022,2147005540,2147727049,2147132690,1058,-1,9,11095
1356800580,5805,174.9600067138672000,19.5349006652832030,36.5951995849609400,240.6074981689453000,104.3618011474609400,19.5380592346191400,29.7984790802001950,51,99,97,81,66,12534,2146959872,2147512704,2147268562,2147450221,2147094043,2147009179,2147736091,2147135012,1269,-2,9,11052
1356800635,5804,170.8699951171875000,19.6047000885009770,36.6032981872558600,239.3141021728515600,102.3145980834961000,19.6001491546630860,29.8317604064941400,52,100,97,81,66,12533,2146958491,2147516763,2147269558,2147449298,2147092571,2147013001,2147744877,2147132534,1405,-2,9,64461
1356800690,5804,166.8500061035156200,19.6602993011474600,36.6091995239257800,238.4342956542968800,100.2677993774414000,19.6622505187988280,29.8461494445800780,52,100,96,81,68,12531,2146960073,2147517787,2147269504,2147448704,2147094409,2147027629,2147755693,2147135707,1179,-2,9,8069
1356800745,5803,162.8999938964843800,19.7551994323730470,36.6184997558593750,238.0390014648437500,97.4403076171875000,19.7480506896972660,29.8279590606689450,53,101,96,81,67,12531,2146957421,2147516178,2147265837,2147446436,2147099163,2147031588,2147771291,2147136640,1242,-2,9,53957
1356800800,5801,159.0099945068359400,19.8456001281738280,36.6216011047363300,238.4906005859375000,94.2855072021484400,19.8438205718994140,29.7658405303955080,54,102,97,81,67,12524,2146961115,2147514797,2147268178,2147445412,2147100388,2147040475,2147783122,2147138450,1051,-1,9,29675
1356800855,5808,155.2899932861328000,19.9337005615234380,36.6301002502441400,238.8638000488281200,91.4021530151367200,19.9313697814941400,29.7112407684326170,54,102,97,82,67,12523,2146958656,2147516370,2147271625,2147445696,2147105344,2147052672,2147806171,2147139026,888,-1,8,33157
1356800933,5807,150.5700073242187500,20.0324993133544920,36.6384010314941400,238.8347930908203000,88.2109680175781200,20.0283107757568360,29.6711292266845700,55,103,97,82,68,12523,2146958345,2147517238,2147269522,2147446317,2147106486,2147067913,2147828315,2147141970,532,-2,9,791
1356801021,5806,146.3600006103515600,20.1067008972167970,36.6453018188476560,238.6434020996093800,85.9048233032226600,20.0983791351318360,29.6502704620361330,56,107,97,84,67,12521,2146959789,2147515053,2147271817,2147447094,2147109156,2147079552,2147850157,2147141412,3404,-2,9,65258
1356801109,5803,142.4199981689453000,20.2374000549316400,36.6554985046386700,237.6522979736328000,81.3453216552734400,20.2369899749755860,29.6376590728759770,59,105,98,83,66,12518,2146958089,2147516690,2147270720,2147442596,2147115136,2147102107,2147872713,2147140516,2961,-2,9,40497
1356801197,5805,139.0800018310547000,20.4116992950439450,36.6647987365722660,236.3818054199218800,76.0673904418945300,20.3975200653076170,29.6289901733398440,61,108,97,83,67,12510,2146959689,2147515090,2147273993,2147442706,2147121225,2147115904,2147908004,2147142409,2731,-2,8,46536
1356801331,5807,135.0399932861328000,20.5354995727539060,36.6727981567382800,238.5841979980468800,71.7851409912109400,20.5278491973876950,29.4711799621582030,63,110,98,82,67,12506,2146961307,2147517046,2147273526,2147442651,2147130560,2147141376,2147937545,2147148534,1862,-2,9,17027
1356801463,5803,131.2100067138672000,20.6336002349853500,36.6773986816406250,238.8441925048828000,68.7614364624023400,20.6199207305908200,29.4204692840576170,64,108,98,83,67,12503,2146958637,2147519277,2147277056,2147439908,2147141531,2147175268,2147980096,2147148873,1452,-1,8,10672
1356801594,5803,126.6500015258789000,20.7430000305175780,36.6815986633300800,238.3513031005859400,64.3470077514648400,20.7544097900390620,29.3866500854492200,66,109,99,83,66,12499,2146960585,2147521316,2147277138,2147440320,2147166427,2147231442,2148068608,2147156754,1486,-2,9,11179
1356801693,5804,122.8300018310546900,21.1009998321533200,36.6609001159668000,238.3197937011718800,53.4426116943359400,21.0869503021240230,29.2486495971679700,69,114,99,84,65,12487,2146962541,2147523712,2147282624,2147439350,2147192164,2147296000,2148160676,2147167360,1633,-2,9,41385
1356801883,5807,118.9000015258789000,21.5345993041992200,36.5716018676757800,244.1136932373047000,39.6584014892578100,21.5080795288085940,28.8109397888183600,68,123,103,87,63,12456,2146962724,2147529316,2147287222,2147439652,2147228068,2147374198,2148266102,2147174473,2422,-2,9,58663
1356802015,5806,115.0599975585937500,21.6783008575439450,36.5279998779296900,247.4037933349609400,34.7975692749023440,21.6567993164062500,28.6041908264160160,70,122,104,87,63,12445,2146965046,2147527506,2147290313,2147438134,2147259419,2147442459,2148348845,2147179977,2208,-2,9,48217
1356802182,5808,110.8000030517578100,21.7255001068115230,36.5097007751464840,251.0948944091797000,32.8354301452636700,21.7168598175048830,28.4189491271972660,75,127,104,89,62,12421,2146967040,2147536530,2147298907,2147437449,2147326985,2147592868,2148549924,2147197184,2721,-2,9,53793
1356802281,5808,106.4199981689453100,21.7429008483886720,36.5031013488769500,252.8003997802734400,32.1572303771972660,21.7376308441162100,28.3374996185302730,76,136,104,89,61,12407,2146971081,2147543890,2147310454,2147437421,2147451318,2147859300,2148922678,2147222546,2645,-2,9,28461
1356802369,5806,102.4499969482421900,21.7500000000000000,36.4999008178710940,253.7263031005859400,31.8660202026367200,21.7465400695800780,28.2941398620605470,75,134,106,88,62,12407,2146976704,2147549485,2147320850,2147435419,2147557092,2148045723,2149158921,2147244260,2289,-2,9,45518
1356802457,5809,98.6900024414062500,21.7541999816894530,36.4989013671875000,254.1015930175781200,31.7338409423828120,21.7505893707275400,28.2766990661621100,76,136,104,88,62,12396,2146981376,2147557266,2147331044,2147437970,2147677202,2148241846,2149408438,2147265252,1823,-2,9,48597
1356802514,5807,96.5199966430664000,21.7544002532959000,36.4978981018066400,254.4631958007812500,31.7159404754638670,21.7511405944824220,28.2611103057861330,76,133,105,89,61,12396,2146984118,2147568704,2147345490,2147439177,2147787611,2148468077,2149711643,2147288722,1664,-1,9,53950
1356802569,5806,94.5999984741211000,21.7539005279541000,36.4975013732910160,254.7281951904297000,31.7111206054687500,21.7512893676757800,28.2497005462646500,74,133,106,90,61,12400,2146986304,2147564022,2147345901,2147436269,2147802633,2148443684,2149637513,2147287314,1519,-2,9,5628
1356802624,5803,92.9300003051757800,21.7537002563476560,36.4976005554199200,254.6846008300781200,31.7241001129150400,21.7508907318115230,28.2518596649169920,76,134,107,89,62,12402,2146988836,2147565248,2147347053,2147433536,2147832969,2148472740,2149665572,2147288329,1235,-2,9,18107
1356802690,5803,90.9400024414062500,21.7544002532959000,36.4970016479492200,254.7288970947265600,31.7164306640625000,21.7511291503906250,28.2498703002929700,75,132,104,89,61,12396,2146990564,2147564416,2147351195,2147438601,2147875501,2148548909,2149765092,2147299785,953,-2,9,8185
1356802745,5805,89.1800003051757800,21.7546005249023440,36.4976005554199200,254.8946990966797000,31.7007007598876950,21.7516098022460940,28.2426395416259770,75,134,106,90,61,12396,2146983451,2147558034,2147336978,2147434697,2147813650,2148379556,2149503798,2147278884,821,-1,9,2395
1356802800,5807,87.5000000000000000,21.7542991638183600,36.4976005554199200,254.8833007812500000,31.7052192687988280,21.7514705657959000,28.2433300018310550,75,133,105,89,62,12405,2146977636,2147546724,2147307062,2147433097,2147566902,2147883456,2148825334,2147225892,769,-2,9,15401
1356802879,5808,84.5899963378906200,21.7551002502441400,36.4963989257812500,255.1291961669922000,31.7005996704101560,21.7516098022460940,28.2326602935791000,74,134,106,89,61,12401,2146975780,2147539254,2147304521,2147433746,2147557723,2147828946,2148714203,2147220717,619,-2,9,7461
1356802934,5807,81.8399963378906200,21.7541007995605470,36.4968986511230500,255.0872955322265600,31.7139701843261720,21.7511997222900400,28.2345409393310550,74,136,105,89,62,12400,2146982701,2147553362,2147322230,2147435190,2147752054,2148154752,2149119469,2147261211,345,-2,9,35195
1356802989,5807,78.8899993896484400,21.7534008026123050,36.4968986511230500,255.1949005126953000,31.7304992675781250,21.7506904602050780,28.2303695678710940,74,134,105,90,61,12397,2147000896,2147586102,2147365056,2147438390,2148253568,2148995364,2150129472,2147350710,27,-1,9,30986
1356803044,5803,75.8300018310546900,21.7530994415283200,36.4958992004394500,255.2236938476562500,31.7533092498779300,21.7500000000000000,28.2294197082519530,76,136,105,89,61,12398,2147004699,2147586057,2147369810,2147439762,2148329508,2149085686,2150213705,2147362541,3351,-1,9,43237
1356803099,5806,72.6100006103515600,21.7528991699218750,36.4939994812011700,255.3560028076172000,31.7751502990722660,21.7493305206298830,28.2240200042724600,77,133,106,89,61,12395,2147017636,2147602514,2147392475,2147439396,2148640557,2149564946,2150755245,2147423606,131,-2,9,29481
1356803154,5805,69.3799972534179700,21.7506008148193360,36.4954986572265600,255.6136932373047000,31.8028793334960940,21.7484798431396500,28.2135200500488280,76,133,107,89,62,12393,2147012525,2147595209,2147376338,2147439862,2148491318,2149252324,2150349202,2147395236,46,-2,9,16316
1356803211,5802,65.6500015258789000,21.7502002716064450,36.4958000183105500,255.4752960205078000,31.8413391113281250,21.7472991943359380,28.2197494506835940,76,137,105,88,61,12393,2147033910,2147623936,2147417216,2147443593,2149065517,2150100900,2151298038,2147505472,3450,-1,9,19830
1356803266,5805,62.2700004577636700,21.7509002685546880,36.4944000244140600,255.8058013916015600,31.7967796325683600,21.7486591339111330,28.2051906585693360,77,134,106,90,63,12384,2147066404,2147661961,2147476443,2147451364,2149854491,2151272310,2152623945,2147665298,3336,-2,10,7180
1356803321,5805,59.3899993896484400,21.7511997222900400,36.4940986633300800,255.9584045410156200,31.8080902099609380,21.7483196258544920,28.1989707946777340,77,140,106,89,62,12380,2147082057,2147686774,2147497929,2147455177,2150282185,2151818971,2153164818,2147752502,3305,-2,9,26917
1356803376,5806,56.7299995422363300,21.7520999908447270,36.4930992126464840,256.0599975585937500,31.8024902343750000,21.7484893798828120,28.1946392059326170,77,133,106,91,61,12378,2147087588,2147692800,2147508598,2147456054,2150418651,2151975076,2153324269,2147796160,270,-2,9,32466
1356803431,5802,54.3100013732910160,21.7521991729736330,36.4925994873046900,256.2690124511719000,31.7875404357910160,21.7489490509033200,28.1856803894042970,78,134,107,89,61,12374,2147140141,2147752265,2147582052,2147463387,2151727241,2153788379,2155249280,2148063533,2848,-1,10,23292
1356803572,5803,47.2999992370605500,21.7506008148193360,36.4929008483886700,256.4244079589844000,31.8505802154541000,21.7470207214355470,28.1800193786621100,76,134,106,89,60,12378,2147154505,2147763337,2147592640,2147472960,2152121014,2153949083,2155104859,2148166326,2853,-1,9,11538
1356803607,5805,44.9399986267089840,21.7486991882324220,36.4938011169433600,256.3019104003906000,31.8834304809570300,21.7460098266601560,28.1854991912841800,76,135,106,89,61,12377,2147121362,2147718244,2147527140,2147465801,2151286738,2152729682,2153751369,2148001618,3196,-1,8,17412
1356803639,5808,42.7500000000000000,21.7483997344970700,36.4934005737304700,256.3464965820312500,31.8874607086181640,21.7458896636962900,28.1836891174316400,77,134,107,89,61,12380,2147124196,2147718043,2147519771,2147468324,2151265005,2152626514,2153592722,2148011337,34,-2,9,41717
1356803671,5805,40.7599983215332000,21.7476997375488280,36.4934997558593750,256.2951049804687500,31.8841209411621100,21.7459907531738280,28.1857395172119140,78,137,108,89,62,12379,2147157229,2147757814,2147567469,2147477403,2152215698,2153813942,2154757494,2148240576,205,-1,8,60999
1356803703,5805,38.6300010681152340,21.7476997375488280,36.4931983947753900,256.3287048339844000,31.8844108581542970,21.7459793090820300,28.1843891143798830,77,134,104,90,61,12376,2147180251,2147780498,2147592420,2147478811,2152716982,2154397248,2155312356,2148383597,257,-2,8,60599
1356803735,5808,36.4700012207031250,21.7457008361816400,36.4944992065429700,256.4603881835937500,31.8807697296142580,21.7460899353027340,28.1789093017578120,77,133,106,91,62,12373,2147229385,2147831469,2147650020,2147495881,2153880813,2155813888,2156657097,2148668443,449,-2,9,31091
1356803767,5805,34.1500015258789060,21.7472000122070300,36.4930992126464840,256.3929138183594000,31.8825397491455080,21.7460403442382800,28.1816596984863280,78,137,107,90,61,12377,2147356379,2147969645,2147819346,2147531812,2157100973,2159778752,2160555602,2149477284,461,-1,9,12486
1356803799,5807,31.6700000762939450,21.7458000183105470,36.4938011169433600,256.6795959472656000,31.8470401763916000,21.7471294403076170,28.1691303253173830,78,132,106,88,63,12373,2147565238,2148205065,2148109156,2147607195,2162469376,2166323757,2166976850,2150962642,683,-2,9,48286
1356803831,5805,28.9300003051757800,21.7467002868652340,36.4930992126464840,256.6025085449219000,31.8439903259277340,21.7472190856933600,28.1723594665527340,76,136,105,89,63,12364,2147680475,2148329682,2148243931,2147657837,2165314916,2169570486,2169945481,2151773184,586,-1,9,5373
1356803863,5757,26.3299999237060550,21.7479000091552730,36.4930000305175800,256.6422119140625000,31.8009109497070300,21.7485408782959000,28.1702308654785160,79,131,107,88,60,12369,2147808722,2148453010,2148387008,2147724553,2168602706,2173149101,2173178496,2152822738,781,0,9,22460
